INMARSAT 5-F3

Last updated on Wed Oct 29 2025 00:02:48 GMT+0000 (Coordinated Universal Time)

1 40882U 15042A 25300.65146718 .00000061 00000+0 00000+0 0 9997 2 40882 0.0188 186.9755 0000552 230.0198 33.3845 1.00271245 37230
UTC large
Height (km)
Speed (km/s)
/
Latitude / Longitude
Inclination (degrees)
Orbital Period (minutes)
Azimuth
Elevation
Range (km)
Doppler Factor

Next 0 passes for location: London (51.5072 / 0.1276)

Sorry there are no passes over London.